Flight Information

DEPARTURE
BOISE, ID
Elevation:
2871
Runways:
10L/28R - 10000x150 - ASPH-G
10R/28L - 9763x150 - ASPH-G
Active PE Departure:
28R - 28L
Current PE ATIS:
R
Altimeter:
30.04
Remarks:
V F R DEPARTURES CONTACT CLEARANCE DELIVERY, ADVISE ON COURSE HEADING, ALTITUDE, AND IF FLIGHT FOLLOWING IS REQUESTED.
ATIS:
123.9
Clearance Delivery:
125.9
Ground:
121.7
Tower:
BOISE TOWER 118.1
DESTINATION
,
Elevation:
TPA:
1000 (est.)


6520.2 NM71° True-17° Var54° HDG

Flight Plan:
(click to file on line)

1. Type
2. Aircraft Identification
3. Aircraft Type / Special Equipment
4. True Airspeed
kts
5. Departure Airport
(ICAO code)
6. Arriving Airport
(ICAO code)
7. Cruising Altitude
ft
8. Alternate Airport
(ICAO code)
9. Route of Flight
10. Remarks


00:00:00 Departure ATIS: Destination ATIS:

Clearance Limit:
Route:
Altitude: Expect in minutes
Frequency:
Transponder: (7500 Hijack / 7600 Lost Comms / 7700 Emergency)


KBOI 110353Z 33013KT 10SM CLR 06/M10 A3004 RMK AO2 PK WND 34028/0258 SLP171 T00611100
Time: 2021-04-11T03:53:00Z
1618115198
Winds: 330 @ 13 kts
Visibility: 10.0 sm
Clouds (AGL): CLR
Temperature: 6.1 C
Dew Point: -10.0 C
Pressure: 30.041338 in Hgbr


Notes:

Data extracted from FAA Digital Chart Supplement. Effective: 0901Z Thursday, Feb 25, 2021 to 0901Z Thursday, APR 22, 2021
Current ATIS data is provided courtisy of PilotEdge.